Wind_Speed
15 15 15 14 14 13 13 13 13 13 13 13 13 13 13 12 12 13 12 12 11 10 10 10 9 9 9 11 12 13 13 13 13 15 14 8 7 10 12 16 20 23 26 26 26 25 23 20 16 18 17 13 11 11 10 5 3 2 2 2 1 0 1 2 3 5 2 2 7 11 8 7 9 9 10 11 11 13 11 9 10 7 8 13 16 25 30 27
16 16 15 14 14 13 14 14 14 13 13 13 13 13 13 13 12 12 12 12 11 10 10 10 9 9 9 10 11 12 14 14 15 16 12 8 9 12 15 18 21 24 27 29 29 28 26 23 19 19 16 11 9 10 9 6 5 4 2 1 1 0 1 2 5 6 4 2 8 11 9 7 8 12 13 10 11 13 12 11 12 14 14 15 20 26 27 26
16 16 16 15 14 14 14 14 14 14 13 13 13 13 13 13 13 12 11 11 11 11 10 10 9 9 9 10 10 11 12 14 15 12 8 7 10 14 18 20 22 23 26 27 28 27 24 22 19 18 15 8 7 9 9 7 6 5 3 2 1 1 3 4 6 7 4 4 10 12 10 7 9 14 12 10 12 12 11 13 14 16 18 21 25 26 26 27
16 16 16 16 16 15 15 15 14 14 14 14 14 13 13 14 13 12 11 11 11 10 10 10 10 9 9 9 9 9 10 12 9 4 3 5 8 15 20 22 23 23 24 26 27 25 20 19 19 18 14 7 6 8 8 8 6 5 5 3 1 1 5 5 6 7 3 6 12 13 11 8 12 14 10 12 12 9 11 14 17 21 24 26 27 28 28 28
15 16 16 16 16 16 16 15 15 15 14 14 14 14 13 13 14 13 12 11 10 10 10 10 10 9 8 8 8 7 6 4 1 1 2 4 8 14 21 22 22 23 25 27 27 24 20 19 19 17 10 5 8 7 6 10 7 4 5 5 5 5 8 8 8 6 1 7 12 13 11 10 13 11 11 14 8 5 11 14 19 24 27 30 30 29 28 28
16 16 16 16 15 15 15 15 15 15 15 14 14 14 13 13 13 13 13 12 10 9 9 10 10 9 7 7 6 5 3 1 2 2 2 2 7 14 20 22 22 23 25 27 28 25 21 21 19 14 7 4 8 6 5 12 9 4 5 6 8 9 9 10 9 5 2 8 12 12 10 12 12 7 11 14 2 4 13 16 19 22 27 32 32 31 29 29
17 16 16 15 15 14 14 14 15 15 15 14 14 13 13 12 13 13 13 12 11 9 9 9 9 8 7 6 6 4 6 5 2 2 2 0 7 13 19 22 23 24 26 28 29 26 23 23 18 12 8 4 7 6 4 10 11 7 5 6 9 10 11 14 10 6 5 9 11 12 10 13 12 6 10 11 2 8 14 16 19 21 27 31 31 30 29 29
18 17 17 16 15 15 14 14 15 15 15 15 14 12 12 12 12 13 13 12 11 9 9 9 8 7 6 6 6 5 7 6 3 2 1 2 6 12 18 22 24 25 27 28 29 28 25 23 18 13 8 3 6 9 5 7 9 9 8 8 11 11 12 13 9 6 7 8 10 11 10 11 10 6 10 10 6 11 14 17 21 23 28 29 29 29 27 28
18 17 17 16 16 15 15 15 16 16 16 15 13 12 12 11 11 12 12 12 11 9 8 8 7 6 6 6 6 5 4 5 5 4 2 3 6 11 18 22 24 26 27 27 27 27 24 22 20 13 6 4 7 9 8 6 5 7 10 11 12 14 15 14 9 7 9 8 11 11 8 9 8 4 7 9 9 13 15 19 23 25 28 27 28 28 27 28
17 17 17 16 16 16 16 16 17 17 16 15 13 11 11 11 11 11 12 12 10 8 7 7 5 5 6 5 3 2 3 6 7 6 4 4 6 10 15 19 22 25 26 26 25 26 24 21 21 12 4 6 7 7 8 6 2 3 9 12 14 16 16 13 8 9 9 9 12 10 8 9 8 4 5 8 11 14 17 20 23 25 26 26 26 26 26 28
17 17 17 16 16 16 16 17 17 18 17 15 13 11 10 10 10 11 11 11 9 7 6 5 4 5 5 3 4 2 3 7 8 7 6 6 6 7 10 14 18 22 24 26 24 24 21 19 20 11 3 6 7 5 5 4 4 5 8 10 12 13 11 7 5 11 10 7 11 10 7 8 7 5 5 10 15 15 18 21 23 23 23 24 25 25 24 25
19 18 17 17 16 16 16 16 17 18 16 13 12 11 11 10 10 10 10 9 7 6 5 4 4 5 4 6 8 5 4 7 9 8 6 6 5 5 6 10 14 17 20 22 22 22 18 17 20 10 2 5 7 4 2 2 5 6 5 7 8 8 5 1 2 11 10 6 12 11 6 7 9 7 5 13 18 16 19 21 22 22 21 23 24 23 23 23
20 19 18 18 17 16 16 16 17 17 14 11 12 13 12 10 8 8 7 6 5 4 4 4 5 4 4 6 6 7 6 8 11 9 7 7 6 5 5 8 12 15 16 16 18 21 17 16 20 10 2 4 4 1 1 2 5 5 3 4 6 6 2 3 3 9 7 6 14 11 3 4 10 10 6 15 20 18 19 20 21 20 20 23 23 23 22 22
21 20 20 19 18 16 16 16 16 16 12 10 12 13 10 7 6 6 5 4 4 4 3 4 4 4 5 3 3 10 9 8 11 12 10 9 9 8 7 8 11 14 15 14 14 19 18 16 18 11 5 4 1 2 2 1 2 2 2 2 2 3 1 3 2 9 6 5 13 10 4 1 5 10 11 16 21 20 20 20 20 20 20 23 23 22 23 23
21 20 20 19 18 17 16 15 16 14 11 10 11 11 8 7 6 3 2 3 3 3 2 3 3 3 6 4 5 11 10 8 9 11 11 9 10 10 8 9 11 13 15 14 13 17 19 16 14 10 5 5 3 2 1 0 0 0 3 3 2 2 0 2 3 8 5 5 12 8 4 0 3 9 14 16 20 20 20 20 21 21 21 23 22 22 23 23
21 20 19 19 19 17 16 15 15 13 10 10 10 9 7 6 3 2 3 4 4 3 3 3 3 2 5 3 6 9 9 7 6 8 11 9 9 9 8 9 10 12 14 12 10 15 20 14 9 7 4 4 3 1 1 2 2 1 3 2 2 2 1 2 3 7 5 6 11 9 3 1 4 6 13 17 20 20 19 20 22 22 22 23 23 23 23 23
21 20 18 18 18 17 15 14 14 12 8 8 8 7 6 4 3 4 4 5 3 3 3 3 3 4 4 3 6 7 6 5 5 7 11 12 10 9 9 11 11 12 12 12 8 12 19 13 7 6 4 3 2 1 4 5 5 3 2 2 1 1 2 1 3 7 8 6 9 9 6 2 3 6 11 15 19 20 20 21 22 23 23 23 23 23 24 24
20 19 17 17 17 17 15 13 13 10 6 7 6 4 4 4 6 4 3 3 3 2 2 3 3 2 4 6 5 6 5 3 6 7 10 14 13 10 10 11 13 14 13 11 8 9 14 11 6 5 3 5 4 4 5 4 5 5 4 3 2 1 2 2 2 6 10 8 8 9 9 9 3 6 10 13 17 19 19 20 21 23 23 23 23 23 23 23
20 18 16 16 16 16 14 11 11 8 5 5 3 1 2 2 4 3 1 0 2 2 2 3 5 2 1 4 5 4 2 3 6 7 9 13 15 11 9 10 16 17 13 9 6 8 11 8 6 6 6 9 7 6 5 1 3 5 3 2 2 1 2 2 0 5 11 8 7 10 10 11 8 6 9 12 15 17 18 20 21 23 24 24 23 22 22 22
18 17 16 15 15 14 12 10 9 4 2 3 1 1 0 1 2 3 4 8 9 8 7 7 8 8 6 2 3 1 2 5 7 10 10 12 16 13 10 12 15 13 9 7 6 9 10 7 8 9 7 9 7 7 7 1 2 3 3 3 1 0 2 2 1 3 9 7 6 10 10 10 9 6 9 12 14 16 18 19 21 23 25 26 25 23 23 23
17 15 14 14 14 12 10 8 6 1 1 1 1 2 2 3 0 2 6 10 9 8 10 9 10 13 10 5 2 2 2 5 7 11 10 11 16 12 10 12 11 6 6 7 7 8 9 8 8 7 6 8 7 8 9 5 2 2 2 1 1 2 1 1 3 1 8 6 4 6 8 10 11 7 9 13 14 17 20 21 22 23 23 25 25 24 23 22
16 14 14 14 13 11 9 7 4 2 4 3 4 5 4 4 1 3 5 7 8 7 8 9 11 14 12 7 5 2 2 4 7 11 11 14 16 10 9 10 7 6 6 7 7 7 7 7 6 8 8 8 5 5 7 6 5 4 3 2 2 2 2 1 3 1 6 6 2 4 7 9 10 8 9 15 16 17 22 23 22 23 24 24 24 23 22 22
17 16 16 15 14 11 8 6 2 5 7 6 5 5 3 2 2 4 3 5 8 7 5 8 10 11 9 6 4 4 4 3 7 10 13 18 16 11 12 9 5 7 8 8 8 7 6 5 8 9 8 8 5 4 6 5 5 4 4 4 3 2 2 1 4 3 6 5 3 2 5 7 7 7 9 15 17 15 17 19 18 21 25 25 23 22 23 24
18 18 18 16 13 10 8 5 1 7 9 7 5 4 1 1 3 5 4 4 5 5 3 5 8 8 6 4 3 5 5 4 7 11 16 19 16 12 11 9 6 7 8 8 7 7 3 4 9 9 8 9 6 5 6 5 4 4 5 6 4 2 3 1 3 2 4 6 3 2 4 4 4 6 7 9 13 12 12 15 17 19 22 23 22 21 22 24
20 19 17 15 12 9 7 4 2 8 10 8 5 3 1 2 4 5 4 2 2 2 2 2 4 4 4 3 3 4 5 4 3 9 17 19 17 11 7 7 6 6 8 8 7 6 3 5 11 10 7 8 6 5 6 6 4 4 6 8 7 5 4 1 1 2 2 4 3 3 4 1 1 4 5 6 9 11 12 15 18 19 20 21 23 24 22 23
20 18 16 16 13 10 5 1 2 6 10 8 5 3 2 4 5 5 3 1 1 2 2 1 1 3 3 3 6 6 4 4 3 7 15 16 13 10 6 5 2 3 8 8 4 4 2 4 8 9 9 8 7 6 6 5 6 4 4 7 8 6 5 4 2 2 3 0 1 3 4 2 0 1 2 5 8 11 12 14 17 19 20 23 24 25 24 23
18 16 16 16 15 10 3 2 1 4 8 7 6 4 4 6 6 5 3 1 2 3 2 1 0 3 2 3 7 5 2 6 8 8 8 11 10 9 7 5 3 3 5 5 3 3 4 6 6 7 9 8 7 6 6 7 7 3 3 6 8 8 8 7 5 3 2 2 1 5 4 4 2 2 5 1 6 7 8 10 13 16 20 23 24 25 27 26
16 15 15 16 15 11 5 3 2 3 5 5 5 4 4 6 5 4 3 1 3 3 2 1 0 2 2 4 5 2 2 6 5 6 6 6 5 7 7 5 5 5 5 6 5 2 5 8 7 8 7 6 6 5 7 10 7 3 3 4 6 7 7 7 6 3 0 2 4 4 4 3 1 4 7 4 1 4 5 7 10 14 19 22 23 25 27 27
15 14 14 14 13 10 6 3 2 2 2 3 4 3 4 5 3 2 2 2 3 2 2 2 1 1 2 3 4 7 6 4 3 4 7 7 4 3 4 2 2 5 4 3 5 3 2 5 6 7 6 5 5 5 9 12 7 2 4 3 3 2 2 3 4 3 2 2 5 5 7 5 1 5 7 6 6 8 8 7 7 12 19 22 23 24 25 26
16 15 14 13 12 9 7 4 2 0 1 1 2 3 3 3 1 2 1 3 2 2 2 3 2 3 1 3 6 9 7 8 7 6 10 11 11 10 7 6 4 4 3 0 3 2 2 2 3 3 2 2 3 4 9 13 7 5 6 4 3 2 2 1 1 2 2 4 6 5 9 7 1 4 6 6 6 9 8 7 8 9 14 20 23 24 24 25
16 15 14 12 11 10 9 7 5 3 3 2 1 2 2 1 1 0 3 2 2 3 3 3 2 4 5 6 4 6 6 8 9 7 8 8 11 14 8 4 4 1 4 2 3 1 3 4 3 2 3 3 1 2 3 9 8 6 5 5 4 2 2 2 2 2 4 5 3 2 7 7 2 3 6 7 8 10 9 8 10 11 11 14 22 24 25 25
14 13 13 12 12 11 10 10 8 6 5 2 1 1 2 1 2 2 2 2 2 3 3 3 3 3 8 10 8 6 5 7 8 8 7 5 7 10 7 4 3 3 4 2 4 3 3 4 2 1 3 7 1 4 3 4 7 7 6 5 5 4 4 5 4 4 5 3 1 1 5 5 3 4 6 8 9 11 10 10 11 12 14 13 17 24 25 26
12 12 13 13 13 13 12 12 11 8 5 0 4 4 2 2 4 2 3 3 2 3 3 3 3 2 7 9 7 6 7 6 6 5 6 5 6 6 5 8 6 2 2 0 4 4 4 3 5 1 1 7 4 3 3 4 7 9 8 7 6 4 6 7 4 3 4 3 1 0 3 4 5 4 7 8 9 11 11 12 13 12 14 14 13 21 25 25
12 13 13 14 14 15 14 13 11 8 5 5 6 3 3 4 3 2 3 3 2 2 3 2 2 5 8 7 3 3 6 7 7 6 5 4 5 4 5 9 10 4 0 1 2 2 3 4 4 3 1 6 5 2 1 2 7 7 6 6 6 5 5 5 5 5 5 4 2 3 4 3 5 4 6 7 8 12 13 14 15 15 16 15 8 15 23 24
12 13 15 15 15 15 14 10 9 7 7 9 7 4 5 3 2 3 3 4 3 3 4 3 2 5 7 5 4 4 5 4 4 7 8 6 5 5 5 7 11 7 1 0 1 1 0 2 4 3 1 4 5 3 3 1 5 4 2 4 5 5 3 1 2 3 3 4 3 3 2 2 5 5 7 10 9 13 16 18 20 21 21 19 14 4 12 20
10 13 15 15 16 15 11 8 7 5 6 8 7 5 4 2 2 2 3 5 4 5 5 3 5 5 4 2 4 6 7 4 2 3 6 6 6 7 6 4 7 8 3 0 1 0 1 3 4 3 1 4 6 2 2 2 2 4 4 5 2 0 1 1 2 1 0 4 3 2 3 4 4 3 9 13 12 15 18 20 22 23 22 20 19 17 10 9
8 13 15 16 17 15 9 7 7 9 13 12 7 4 2 1 1 2 5 6 5 4 3 1 4 3 2 2 3 6 5 3 3 3 2 3 4 7 8 4 3 6 5 2 1 1 0 3 3 3 2 7 8 1 4 7 4 2 4 3 3 1 1 1 2 2 4 7 3 3 5 5 2 1 9 14 15 18 17 18 20 21 23 22 20 20 17 9
6 10 15 16 16 14 11 7 6 12 17 12 6 5 1 1 3 4 6 6 4 1 2 3 2 2 1 2 3 6 5 1 3 3 2 3 3 5 7 4 3 8 8 4 1 1 1 1 3 3 2 5 7 1 3 7 7 2 1 1 1 2 3 2 2 4 7 7 4 5 6 5 3 3 9 14 16 16 15 15 17 19 22 22 21 22 21 13
5 6 12 13 12 14 12 8 8 12 14 8 4 4 1 2 4 8 9 5 2 1 2 3 2 2 4 2 2 5 6 3 2 2 2 3 2 3 7 4 4 10 10 5 1 1 2 0 3 3 3 2 5 4 2 5 5 2 1 1 1 1 2 2 1 2 4 5 4 5 5 4 4 5 8 11 13 13 14 13 14 18 21 21 21 23 22 20
4 5 8 9 9 11 10 8 14 15 10 3 2 3 2 2 4 11 14 8 2 3 2 2 2 3 4 4 3 4 6 6 4 2 2 3 1 2 7 5 5 9 8 4 3 1 2 0 1 4 4 1 2 5 4 5 5 3 1 2 2 2 1 1 1 2 1 3 4 5 5 4 4 4 6 9 10 11 12 12 12 17 21 21 23 23 23 24
4 4 6 7 9 11 10 10 13 9 3 2 3 2 3 4 5 11 15 12 8 8 6 4 4 4 4 4 4 3 3 5 5 4 3 4 2 2 7 9 6 6 6 2 3 4 2 1 1 2 4 4 5 3 3 5 6 5 4 3 2 2 1 4 4 2 1 0 2 4 5 4 3 3 5 7 8 10 13 14 14 18 21 22 24 25 26 27
8 4 5 6 8 11 9 10 6 3 3 4 3 3 4 5 6 9 12 11 9 8 8 7 6 5 4 3 4 2 3 4 5 4 5 5 5 3 8 13 8 5 3 1 2 4 2 1 3 4 4 4 6 3 4 5 3 3 5 5 3 2 2 2 4 3 2 1 1 3 5 4 2 3 5 7 8 10 14 16 15 17 20 23 25 27 30 31
11 7 7 7 7 6 7 7 3 3 5 3 2 5 6 5 7 8 9 10 7 5 7 6 4 5 5 4 3 2 3 4 4 4 4 4 6 5 10 15 9 3 3 1 1 3 1 1 3 4 3 1 4 3 2 4 2 1 5 7 5 3 3 2 1 1 2 2 2 3 5 3 1 5 8 9 10 11 13 15 16 17 18 22 26 29 32 35
12 13 14 11 6 2 5 3 2 4 4 3 4 6 6 7 9 9 8 8 7 3 4 5 4 5 5 4 4 3 2 2 3 4 2 2 4 8 12 16 11 5 5 3 1 2 1 1 1 3 3 2 4 4 3 1 3 3 4 7 7 7 4 1 1 0 2 1 1 2 5 4 2 6 8 9 10 12 14 15 16 17 18 19 23 29 35 39
6 9 15 17 12 10 8 4 4 5 3 3 5 5 5 5 8 10 8 8 9 6 3 3 4 5 4 3 5 6 5 4 3 1 1 2 3 6 12 16 13 9 8 6 3 2 1 1 1 1 2 3 2 1 2 0 3 2 4 7 9 10 8 2 1 1 2 1 1 1 5 6 5 6 7 9 9 10 13 14 15 17 18 18 20 26 34 39
2 3 7 12 16 16 12 7 5 4 2 2 4 4 4 3 4 9 9 8 10 10 6 4 3 3 5 5 6 8 9 8 5 3 2 2 3 3 9 14 14 12 10 9 7 3 2 3 3 3 2 2 3 3 1 2 2 2 5 8 9 10 9 3 1 1 3 4 3 4 4 8 7 6 7 8 8 9 11 13 14 16 18 19 18 21 29 35
4 2 2 4 8 10 10 9 7 3 2 1 1 2 5 3 2 6 8 7 8 8 7 6 5 3 4 5 5 6 7 7 8 6 3 2 1 1 6 11 14 14 11 9 8 3 3 3 4 6 8 6 5 5 2 1 3 3 5 7 8 9 9 5 4 3 1 3 4 3 3 8 7 5 6 7 7 7 9 12 13 14 15 17 18 20 26 30
5 3 3 3 3 3 4 7 8 5 5 3 2 1 4 5 3 4 5 4 6 7 5 5 7 7 4 3 3 3 4 5 6 3 1 2 1 1 4 7 9 12 9 7 7 4 2 3 3 5 8 7 4 5 4 3 3 3 4 6 6 7 7 7 7 4 3 1 6 6 6 7 6 4 6 7 7 7 8 10 11 12 14 16 18 21 23 26
7 6 6 6 5 3 3 4 5 6 7 4 3 3 3 5 5 3 2 2 5 7 5 4 6 7 5 3 2 3 2 2 4 2 1 2 2 1 2 2 4 8 7 5 5 3 1 3 3 3 6 6 4 4 5 5 3 4 6 6 5 4 5 6 6 6 6 7 9 9 9 9 5 4 5 6 6 7 8 10 12 14 16 17 19 21 21 23
8 7 6 8 9 6 6 5 3 4 5 3 3 3 2 4 4 2 2 3 4 4 4 5 6 6 6 6 5 6 3 2 4 3 1 1 1 1 1 0 1 4 5 3 3 3 1 2 2 2 3 3 4 5 6 5 3 5 7 8 7 5 5 5 5 6 7 9 10 10 10 8 4 4 5 4 5 6 8 11 13 15 16 17 18 20 21 21
10 9 7 7 6 5 6 5 3 2 3 3 2 1 1 3 3 2 3 6 4 4 4 6 5 4 5 7 7 6 3 2 3 3 2 1 1 1 1 0 2 2 4 3 2 3 2 2 2 1 2 2 2 5 6 4 3 5 6 8 7 5 4 4 3 4 3 7 10 8 6 5 4 4 4 4 4 7 10 11 12 13 15 17 18 18 19 20
10 8 6 6 4 4 3 2 2 1 2 2 1 1 2 2 1 3 3 6 6 5 7 6 5 3 4 6 7 5 3 1 2 1 1 2 3 4 3 3 2 2 2 2 2 3 1 2 3 2 2 3 1 4 5 0 3 3 4 4 5 3 3 2 2 5 4 5 7 4 4 5 4 3 2 3 5 8 10 10 11 12 14 15 17 17 18 19
Wind_Direction
343 341 339 338 336 334 330 327 324 322 321 319 318 321 324 328 332 334 335 333 328 327 322 314 309 307 305 303 300 299 299 294 289 281 273 269 242 218 199 192 188 187 185 178 179 178 170 170 168 164 159 158 163 167 174 164 136 158 208 239 266 203 46 33 359 350 345 170 160 160 164 150 142 144 127 125 129 125 123 109 115 122 129 143 155 163 160 156
344 343 341 339 338 335 333 329 325 321 318 317 316 315 318 320 325 329 333 333 327 323 321 316 308 306 309 305 303 303 301 299 293 285 274 258 237 213 197 191 189 191 187 181 180 180 175 170 166 161 152 145 150 163 180 181 182 204 221 243 251 193 350 308 313 314 290 188 158 166 168 158 149 149 142 138 144 136 124 120 117 112 121 134 147 154 155 156
343 342 341 340 339 337 335 332 328 322 317 315 314 313 313 314 318 323 328 331 327 320 317 316 308 306 310 308 308 308 306 308 300 291 276 249 230 206 196 193 190 191 191 186 182 183 181 172 168 161 148 139 144 161 177 180 193 211 220 257 230 248 300 278 300 313 291 171 160 168 167 162 157 156 153 149 154 155 144 143 138 130 136 143 147 151 154 159
342 341 340 339 338 336 336 333 330 325 320 314 312 312 310 310 312 316 322 327 326 318 314 313 308 308 311 311 311 313 319 316 305 287 253 239 223 202 196 193 190 189 189 188 183 183 185 177 171 163 151 139 146 163 177 181 183 191 212 252 149 16 309 291 317 326 287 176 167 165 164 164 166 166 161 151 157 175 169 161 155 148 149 150 152 156 159 162
343 341 340 338 336 335 334 332 329 326 323 318 313 310 308 307 307 311 316 321 324 316 310 309 308 310 312 314 311 318 330 323 80 102 270 240 220 200 195 192 187 185 185 186 183 181 186 183 171 161 154 139 154 167 184 189 187 195 226 259 263 286 297 300 321 323 221 164 162 164 168 163 164 172 172 167 172 183 173 170 163 156 156 157 158 159 161 165
347 345 343 340 336 335 333 329 326 324 324 322 316 309 306 303 302 306 310 315 320 314 307 306 306 310 313 312 308 310 293 262 87 21 328 236 211 196 193 188 181 182 182 184 181 180 183 178 168 162 158 151 168 172 173 189 199 230 241 257 262 270 277 291 311 301 199 166 165 166 164 154 160 177 182 184 195 144 164 168 168 164 161 160 160 162 165 168
353 352 349 346 342 339 336 331 327 325 323 322 318 310 302 299 298 301 306 310 315 313 305 303 305 307 309 304 301 292 257 253 298 299 352 109 194 189 189 182 177 179 180 182 179 180 181 174 168 164 163 157 178 180 157 183 204 235 257 269 271 273 271 283 297 276 216 184 169 159 157 160 169 174 180 191 148 141 162 167 168 163 160 160 161 164 168 170
355 354 352 349 347 345 341 337 334 330 327 324 320 309 298 294 293 296 301 305 310 312 303 302 303 301 305 303 297 291 261 243 229 237 32 95 172 181 184 176 175 177 180 183 180 179 177 172 170 166 175 170 166 181 167 176 203 229 257 275 276 278 277 284 288 243 203 184 163 156 162 170 174 162 173 184 147 149 161 163 165 161 160 162 163 166 169 172
351 351 350 348 348 346 344 341 338 335 334 330 322 308 297 292 290 293 296 301 306 306 301 300 299 295 301 300 290 288 254 202 181 180 109 100 143 168 180 176 173 176 180 182 182 181 175 173 174 169 186 172 159 180 181 188 200 213 241 264 272 280 284 286 278 221 192 174 163 164 170 168 165 152 172 179 155 153 158 161 163 162 161 163 166 168 171 175
347 346 345 344 343 342 342 341 338 338 339 334 323 308 297 290 289 291 293 297 300 297 296 295 290 289 301 297 272 262 172 161 164 161 121 100 125 157 179 180 175 177 180 180 183 185 182 181 176 166 162 162 164 173 178 202 246 226 247 266 270 280 286 284 266 204 180 169 172 172 170 168 165 181 190 179 166 157 155 161 164 163 164 166 168 171 174 177
344 342 341 340 339 337 338 338 336 338 342 337 325 310 296 291 290 290 292 293 292 287 282 281 272 279 302 285 237 208 147 153 157 154 128 107 111 139 175 184 179 180 181 181 186 189 192 188 173 162 139 165 171 162 176 213 282 281 275 283 274 277 284 281 243 185 168 165 177 164 154 168 172 206 211 173 170 164 158 161 166 167 166 168 170 173 176 178
342 340 338 338 336 334 335 335 333 337 344 339 325 314 306 303 298 291 289 284 280 273 260 246 246 265 295 280 251 213 159 157 156 154 142 133 119 113 164 190 187 188 187 185 187 189 195 187 175 170 105 161 171 164 183 237 286 285 277 289 284 287 297 335 171 176 170 163 170 158 148 185 196 206 191 169 170 166 163 163 167 170 169 171 174 175 178 179
340 339 337 336 335 334 334 333 331 336 345 338 324 322 320 318 309 294 283 270 260 246 235 223 233 261 279 284 255 194 169 155 159 161 155 156 156 140 161 191 194 196 197 197 192 186 187 182 180 183 140 159 162 167 323 305 278 275 241 272 289 293 318 62 115 168 172 157 167 178 191 188 197 199 166 166 170 164 166 168 170 173 173 176 177 179 181 182
338 337 336 335 335 333 333 333 330 336 344 335 327 330 331 329 317 297 273 249 225 208 207 213 233 269 265 263 187 182 174 156 167 173 168 166 172 169 170 187 195 198 200 204 199 184 178 177 183 192 204 211 282 326 329 318 262 276 213 226 278 283 31 64 130 167 166 156 173 200 251 121 170 185 167 165 170 165 168 172 175 177 177 180 181 183 185 186
335 334 334 333 333 333 333 332 329 335 343 337 335 336 335 336 325 292 233 200 181 180 193 225 248 287 277 262 173 180 182 174 177 182 184 180 178 178 174 182 189 195 199 200 198 187 178 175 183 191 207 231 276 301 312 255 186 348 221 195 191 258 68 81 163 182 176 159 182 205 249 4 105 168 166 166 171 169 172 176 180 182 181 184 185 187 189 190
332 332 332 331 331 331 332 330 328 333 343 343 342 337 338 347 339 160 145 143 148 168 189 228 247 283 288 255 165 179 193 193 186 192 199 198 196 185 167 173 182 188 194 190 187 188 184 180 183 191 208 216 222 234 205 202 179 175 233 208 162 221 226 115 155 193 184 152 187 212 255 5 68 154 167 167 172 174 178 181 184 186 184 187 188 190 192 192
328 329 331 329 327 328 330 329 326 330 346 350 346 344 356 25 88 123 127 137 153 184 206 235 250 273 257 176 156 169 177 186 191 204 206 202 208 200 169 165 174 178 177 172 162 174 182 184 185 191 215 210 175 182 195 200 187 165 208 210 135 218 230 182 148 187 187 173 194 211 238 253 87 143 172 174 175 178 184 185 187 190 189 189 190 192 194 193
327 327 329 327 325 327 330 327 323 328 350 353 344 352 23 83 109 103 102 114 130 170 240 244 219 252 218 187 179 160 142 165 184 193 201 198 202 204 185 162 159 158 153 159 150 151 170 178 191 188 195 203 198 200 194 191 184 170 183 191 152 182 216 211 133 170 184 195 203 204 227 243 206 146 173 185 183 184 188 187 189 193 193 193 192 193 195 194
329 327 328 327 325 328 329 322 320 327 348 352 339 339 35 94 135 148 151 150 197 199 269 229 203 238 254 190 190 176 166 182 181 179 180 189 191 189 187 160 150 148 145 158 158 157 163 161 186 199 201 200 194 198 200 103 146 153 147 157 140 163 199 222 26 171 185 196 207 207 223 239 229 177 175 187 189 192 194 192 194 196 197 197 197 196 195 196
332 329 328 326 326 330 326 316 317 325 347 351 334 215 350 22 189 208 269 280 267 258 263 250 239 266 293 216 178 151 171 174 183 183 175 187 186 172 165 155 145 145 152 158 155 167 173 170 192 201 192 179 165 189 213 257 98 127 119 121 99 303 190 193 355 175 189 206 216 213 227 242 239 202 176 181 189 197 197 196 197 198 199 200 200 199 197 197
336 332 328 327 333 335 325 313 314 313 117 34 106 136 84 53 41 277 303 292 282 272 260 255 253 260 265 241 244 11 124 153 166 180 181 184 181 164 152 155 149 155 162 145 134 152 182 203 198 180 151 152 161 191 211 220 211 216 199 167 178 232 235 50 12 178 193 216 231 212 234 247 246 227 177 175 189 201 200 197 198 198 200 203 203 201 199 198
340 337 334 337 343 341 327 315 307 168 144 125 123 121 95 71 21 329 324 297 295 292 260 251 252 254 253 245 263 288 176 147 143 166 177 173 177 170 151 164 175 163 148 148 144 150 191 213 173 140 136 144 153 186 200 205 214 223 222 232 213 204 272 63 42 29 190 214 262 207 232 249 248 234 189 184 195 204 202 200 200 197 198 204 205 202 199 198
343 342 344 347 348 343 328 319 289 164 148 137 134 128 101 70 358 337 319 286 298 302 260 239 245 254 258 257 251 219 197 166 146 166 175 169 176 178 162 173 186 151 155 176 175 168 194 204 155 140 143 150 145 161 180 189 208 218 212 225 208 153 248 165 70 64 172 212 286 223 242 258 248 232 209 203 203 205 204 202 202 198 199 203 203 202 200 198
345 348 352 351 349 342 328 322 230 167 157 152 150 144 124 341 323 323 311 281 288 308 283 233 238 250 257 255 217 198 187 162 150 165 175 173 171 171 168 173 167 154 168 183 185 181 172 146 152 150 152 170 172 159 177 197 200 207 217 230 225 193 237 260 46 53 182 217 245 252 267 264 236 233 226 209 204 206 201 199 203 201 202 204 203 205 203 201
350 356 358 355 355 346 333 329 195 171 166 168 168 178 252 321 319 316 318 288 250 316 337 205 225 232 227 214 179 172 159 144 142 162 175 179 172 164 167 170 173 175 167 165 182 193 158 131 156 159 158 174 184 181 193 211 213 211 214 225 236 230 229 218 28 320 244 217 204 231 264 244 145 237 231 194 195 207 201 201 207 203 200 204 206 207 205 204
359 8 7 5 6 356 346 29 146 170 175 182 183 210 276 307 315 316 312 284 99 0 353 122 179 188 192 196 165 156 141 108 77 144 171 184 182 172 166 161 185 184 156 152 181 204 160 141 164 169 166 173 196 208 195 199 224 232 199 207 224 230 223 208 216 271 264 304 140 219 258 292 166 258 253 202 197 206 206 209 211 204 202 205 207 208 206 204
7 15 13 11 14 13 30 91 69 165 180 190 203 232 280 298 314 318 285 198 76 5 329 21 92 165 169 168 159 163 161 127 101 92 139 177 192 191 181 169 175 156 145 155 180 196 162 154 163 161 163 178 202 211 184 189 222 233 151 186 205 215 220 212 214 244 274 339 269 209 231 284 276 20 15 262 218 218 221 229 226 218 215 211 207 207 207 206
10 14 12 12 15 22 45 70 76 151 174 192 219 242 280 293 311 311 272 133 41 348 342 358 96 136 127 153 151 106 94 137 122 61 86 137 174 194 191 189 181 150 142 185 186 152 168 178 174 163 170 188 199 202 175 185 220 224 154 182 198 211 219 209 214 229 296 306 261 196 189 243 259 36 28 32 346 327 302 279 258 242 235 225 216 210 207 207
5 6 5 5 7 17 36 53 80 140 192 223 238 257 285 294 299 260 234 69 14 336 9 17 73 95 107 125 63 43 61 73 46 57 83 84 74 136 161 124 142 138 120 216 202 136 159 198 179 179 203 206 197 198 176 185 213 183 142 147 147 163 182 191 212 194 140 244 253 195 189 221 29 42 24 31 21 357 338 321 291 254 240 233 229 222 213 209
358 358 358 357 1 13 25 20 16 41 341 276 257 267 274 286 255 223 100 55 356 329 339 331 312 322 332 120 54 35 45 40 29 56 71 61 59 68 84 80 81 136 120 238 212 133 79 160 130 139 220 234 210 198 183 191 187 128 144 168 151 117 118 135 130 145 167 222 245 218 198 216 235 52 29 19 4 348 334 327 325 292 249 230 226 225 221 215
359 1 4 7 12 18 24 20 12 20 24 19 315 265 235 248 265 107 68 43 321 345 346 333 354 18 59 98 68 22 39 39 20 31 52 46 49 46 41 53 41 115 147 155 191 113 90 140 123 80 44 34 189 172 175 198 182 151 170 188 179 154 149 159 127 168 214 213 246 233 191 205 223 50 19 0 352 350 342 331 329 324 297 246 222 216 217 216
8 13 17 22 21 17 16 12 4 359 354 349 96 151 184 151 41 49 24 327 327 4 355 353 6 45 82 82 59 21 45 50 22 37 55 40 51 48 35 27 358 203 171 175 177 133 114 115 39 290 62 30 356 181 130 175 187 185 188 184 186 172 171 191 178 189 214 209 338 24 177 181 104 62 7 357 357 352 346 340 333 327 320 290 236 214 209 208
19 21 19 20 18 13 9 7 6 358 344 327 142 139 148 79 48 16 324 340 29 18 356 356 353 41 90 83 63 32 48 49 10 30 55 43 64 73 57 40 13 248 175 186 176 157 153 116 19 3 99 12 345 201 154 157 185 193 190 189 195 181 177 188 176 173 203 206 312 41 185 171 120 74 4 2 2 356 351 348 344 334 329 317 262 220 209 204
26 22 18 20 19 15 9 10 23 34 58 116 136 122 76 66 31 321 320 341 343 346 359 344 341 52 66 67 49 17 50 53 24 31 50 45 53 42 29 31 19 6 26 43 155 184 181 151 34 23 351 353 2 351 338 150 171 183 186 188 198 204 196 187 178 179 177 159 126 160 188 171 138 115 14 9 11 11 7 1 359 356 354 349 308 223 212 207
25 22 24 27 24 23 20 27 53 70 91 101 94 59 63 68 331 314 342 332 314 333 347 346 21 61 66 54 30 20 38 56 28 37 51 54 50 23 358 5 10 9 325 202 113 305 212 108 17 349 288 342 3 353 329 185 164 152 170 194 199 213 217 170 178 189 163 136 120 154 163 65 126 125 38 21 23 24 18 13 12 7 5 10 13 329 227 215
15 22 29 31 28 29 31 44 68 88 100 95 76 54 67 69 337 321 331 323 319 322 317 349 36 48 73 60 28 23 29 45 25 32 51 56 52 27 2 341 1 10 4 42 96 331 144 100 12 338 151 25 359 342 34 7 192 150 167 190 168 301 255 175 147 38 217 176 153 143 122 82 143 136 28 18 24 25 19 17 16 10 8 14 17 7 338 255
12 27 31 32 31 28 28 49 77 94 90 84 74 68 102 83 15 312 315 312 297 300 298 51 32 12 62 68 24 4 6 36 33 25 43 35 35 13 352 329 347 9 3 333 73 32 251 124 57 9 52 21 358 218 106 37 7 172 174 163 90 46 291 261 171 158 196 190 142 90 108 89 164 192 14 14 20 20 17 17 16 14 14 15 10 5 1 333
10 32 35 37 37 31 34 60 98 98 83 74 77 89 99 21 28 345 325 311 284 310 36 77 39 345 33 87 46 3 344 351 29 36 62 33 35 8 350 334 333 2 358 321 250 87 335 145 113 45 355 9 8 201 148 30 19 39 119 93 101 195 186 190 201 182 191 186 127 111 113 72 38 8 12 16 20 17 14 16 17 18 18 16 10 5 10 12
8 35 34 35 44 41 40 66 97 89 78 67 76 81 31 355 14 359 355 340 282 4 42 62 54 46 48 78 99 28 21 51 53 56 62 25 42 21 6 346 314 347 353 343 17 131 313 211 137 41 349 308 20 37 10 0 14 80 127 70 16 284 202 183 206 201 198 183 140 142 139 81 38 20 22 27 26 18 16 17 19 20 20 20 17 11 12 21
12 51 29 23 41 30 20 58 71 69 71 62 55 52 9 348 346 2 20 34 27 19 54 76 41 74 75 72 93 53 39 50 52 65 51 21 78 62 20 6 317 331 339 353 45 31 296 331 128 28 11 289 54 43 28 11 13 37 63 49 33 344 278 168 91 18 257 191 160 161 146 93 47 33 40 40 34 26 24 24 24 23 22 23 24 23 21 24
40 62 22 27 36 10 6 55 59 50 63 69 56 34 11 10 347 0 24 45 55 48 62 76 54 75 94 74 69 56 53 60 47 60 72 30 36 59 13 359 323 313 326 345 33 17 343 13 60 46 43 78 97 68 18 18 18 32 47 28 356 337 226 189 176 118 11 261 167 164 140 97 40 34 53 47 43 36 28 28 30 27 24 24 24 27 31 31
58 53 355 10 13 3 30 60 38 4 64 63 48 25 13 14 359 353 9 32 51 50 52 59 50 53 66 65 63 55 72 69 35 48 85 54 41 32 352 351 337 317 339 8 17 8 5 40 60 75 58 83 125 120 18 9 356 28 48 32 2 346 330 240 190 146 116 91 93 113 112 96 23 36 63 56 50 43 32 29 31 29 25 24 23 26 34 39
58 44 3 346 333 355 65 75 35 48 62 56 60 43 38 32 14 3 7 19 29 37 42 41 30 41 48 52 70 77 67 59 39 51 96 79 46 14 350 1 4 343 354 32 12 3 21 40 61 90 81 138 187 211 346 8 346 28 39 23 16 5 341 326 352 111 127 120 138 132 115 111 32 52 70 65 53 45 37 31 30 30 26 25 26 27 34 42
63 50 34 17 350 29 86 79 78 89 67 55 65 45 46 48 27 20 21 21 21 28 48 40 26 40 50 50 66 72 40 56 68 50 64 98 39 7 7 17 22 23 22 18 346 354 13 4 50 121 132 175 206 215 194 88 24 37 20 4 12 16 5 338 308 285 109 51 291 162 127 118 66 58 64 58 49 44 39 35 33 31 28 25 27 32 37 43
70 53 43 41 59 88 88 82 99 101 85 69 64 35 35 54 34 27 32 35 33 35 60 51 30 41 54 65 73 59 31 42 92 91 50 98 61 8 13 22 25 31 39 40 26 15 44 25 330 188 180 194 186 151 156 66 3 22 3 358 11 11 2 352 197 153 119 113 323 73 117 121 88 60 52 39 36 39 36 33 33 31 30 28 27 33 39 43
60 52 38 44 63 74 71 68 78 92 101 80 67 32 24 51 32 26 35 42 35 38 56 50 20 39 52 60 74 58 37 43 72 103 97 75 78 14 9 22 27 25 30 39 36 40 109 62 20 35 60 95 102 74 39 340 354 17 6 3 9 5 354 344 169 94 112 132 98 45 104 126 98 60 56 44 33 33 29 27 30 28 29 31 30 32 39 43
60 56 359 27 54 54 50 43 36 60 105 72 81 22 16 31 22 27 43 49 30 32 50 44 21 29 50 62 80 61 41 49 63 72 71 48 80 349 6 24 26 18 19 30 26 33 123 78 39 59 70 79 87 74 47 358 18 12 360 360 2 359 358 20 73 67 63 141 111 80 132 126 100 59 64 64 52 43 32 26 29 29 29 31 34 35 37 41
73 83 61 69 64 25 33 24 16 45 72 58 82 63 28 43 45 37 44 49 34 25 37 49 28 26 40 59 97 81 46 56 58 47 42 50 57 304 20 31 21 15 22 34 30 37 104 80 60 83 88 88 78 58 34 14 27 25 13 10 4 1 11 39 63 48 342 63 114 137 141 116 97 75 70 70 70 63 45 32 30 33 34 33 35 36 35 35
87 94 70 76 87 59 31 355 356 48 57 42 54 57 44 51 56 49 7 30 52 27 26 68 37 20 29 33 89 100 65 77 81 53 19 61 50 13 44 42 15 15 22 40 41 23 40 84 90 112 104 83 41 31 23 12 37 67 52 42 37 39 42 45 58 66 75 93 113 127 120 105 95 85 80 80 81 75 59 44 36 33 31 31 34 35 33 32
93 99 86 89 88 56 31 17 6 48 46 27 51 54 41 51 59 73 13 26 75 45 39 83 71 44 45 47 70 83 64 90 95 83 182 176 61 70 57 265 349 20 21 35 38 3 348 95 96 127 118 77 13 9 11 13 69 93 69 50 47 69 71 47 54 80 93 109 123 126 116 109 113 100 87 83 80 75 64 51 42 34 29 29 32 32 30 29
101 108 112 107 82 19 25 37 9 46 52 25 48 70 57 56 63 97 48 25 50 96 100 104 97 71 55 57 67 67 50 60 56 53 138 128 51 87 57 245 220 1 27 39 14 2 32 105 120 173 159 115 27 357 359 18 114 113 77 44 30 49 64 40 42 49 72 131 142 139 128 123 140 138 101 64 55 61 59 52 47 39 31 29 30 29 27 25
94 100 108 113 85 12 34 51 346 67 76 2 15 58 53 76 137 168 98 39 39 90 119 128 118 89 69 68 62 45 25 358 345 354 137 90 77 90 78 86 109 10 27 68 34 16 52 128 138 177 183 143 91 343 343 324 173 141 85 35 5 17 52 65 70 43 50 144 161 150 129 123 134 158 133 61 48 50 50 48 45 41 35 31 29 26 24 22
Height
1518 1517 1516 1515 1514 1512 1512 1511 1510 1509 1508 1507 1506 1506 1505 1505 1504 1504 1503 1502 1502 1501 1500 1499 1499 1498 1498 1498 1497 1496 1496 1495 1495 1494 1494 1493 1494 1495 1496 1497 1499 1500 1502 1505 1507 1509 1511 1513 1514 1515 1517 1519 1521 1522 1524 1524 1525 1525 1526 1529 1530 1527 1525 1522 1520 1519 1519 1519 1519 1520 1521 1522 1524 1526 1527 1528 1529 1529 1531 1532 1533 1534 1535 1536 1537 1538 1541 1545
1517 1516 1515 1514 1513 1512 1511 1510 1509 1508 1507 1506 1505 1505 1504 1504 1503 1503 1502 1501 1501 1500 1499 1498 1498 1497 1497 1496 1496 1495 1494 1494 1493 1492 1492 1492 1492 1493 1494 1495 1497 1499 1501 1503 1505 1507 1508 1511 1513 1515 1517 1519 1521 1522 1523 1524 1525 1524 1525 1528 1527 1524 1522 1519 1518 1517 1517 1518 1518 1520 1521 1522 1523 1525 1526 1528 1529 1529 1531 1533 1534 1535 1536 1537 1538 1540 1543 1545
1516 1515 1514 1513 1512 1511 1510 1509 1508 1507 1506 1505 1504 1504 1503 1502 1502 1502 1501 1501 1500 1499 1498 1497 1497 1496 1496 1495 1495 1495 1494 1493 1491 1490 1490 1490 1491 1491 1492 1494 1496 1498 1500 1503 1505 1507 1509 1511 1513 1515 1517 1519 1521 1522 1523 1523 1524 1523 1525 1528 1524 1520 1519 1517 1517 1517 1516 1517 1518 1520 1521 1522 1524 1525 1526 1527 1528 1529 1529 1531 1533 1535 1537 1538 1539 1541 1544 1546
1516 1515 1513 1512 1511 1510 1509 1508 1507 1506 1505 1504 1503 1503 1502 1501 1500 1500 1500 1499 1499 1498 1497 1497 1496 1495 1495 1494 1494 1494 1493 1492 1489 1489 1489 1489 1489 1490 1491 1492 1495 1498 1501 1503 1506 1508 1510 1512 1513 1515 1517 1519 1521 1522 1522 1522 1523 1523 1524 1524 1520 1519 1519 1516 1516 1516 1516 1517 1517 1519 1521 1523 1524 1525 1525 1526 1528 1529 1528 1529 1529 1532 1535 1537 1539 1541 1543 1546
1515 1514 1513 1511 1510 1509 1508 1507 1506 1505 1504 1503 1502 1502 1501 1500 1499 1499 1498 1498 1498 1497 1496 1496 1495 1495 1494 1494 1494 1493 1494 1492 1489 1489 1489 1488 1488 1489 1490 1492 1494 1497 1500 1503 1505 1508 1510 1511 1513 1515 1516 1518 1520 1521 1521 1521 1522 1522 1520 1519 1518 1519 1518 1516 1515 1516 1516 1517 1518 1519 1521 1522 1524 1525 1525 1525 1527 1527 1527 1529 1529 1529 1532 1535 1537 1540 1543 1546
1514 1513 1512 1510 1509 1508 1507 1506 1505 1504 1503 1502 1501 1500 1500 1499 1498 1497 1497 1497 1497 1496 1495 1494 1494 1494 1493 1493 1493 1493 1493 1491 1489 1489 1489 1488 1488 1488 1490 1492 1494 1497 1499 1502 1505 1507 1509 1511 1513 1515 1516 1517 1518 1519 1519 1520 1521 1522 1519 1518 1518 1518 1517 1515 1515 1516 1516 1517 1518 1519 1520 1521 1523 1525 1525 1525 1526 1526 1526 1529 1530 1530 1532 1534 1536 1539 1542 1545
1513 1512 1511 1509 1508 1507 1506 1504 1503 1502 1501 1500 1500 1499 1498 1497 1497 1496 1496 1495 1495 1495 1494 1494 1493 1493 1493 1492 1492 1492 1492 1490 1489 1489 1489 1488 1488 1488 1490 1492 1494 1496 1499 1501 1503 1506 1508 1510 1512 1513 1515 1516 1518 1518 1519 1520 1520 1521 1519 1517 1517 1517 1516 1515 1515 1516 1516 1517 1517 1518 1520 1521 1523 1524 1525 1526 1526 1526 1527 1529 1531 1532 1534 1536 1538 1540 1543 1545
1512 1511 1510 1508 1507 1506 1505 1503 1502 1501 1500 1499 1498 1497 1496 1496 1495 1495 1494 1494 1494 1494 1493 1493 1492 1492 1492 1492 1491 1491 1490 1489 1489 1489 1489 1489 1488 1489 1491 1492 1494 1496 1498 1500 1502 1504 1507 1510 1511 1513 1514 1515 1516 1517 1518 1519 1520 1520 1519 1517 1516 1516 1515 1514 1515 1515 1515 1516 1517 1519 1519 1521 1522 1523 1525 1526 1527 1527 1528 1530 1531 1533 1535 1537 1539 1541 1544 1546
1512 1510 1509 1508 1506 1505 1504 1502 1501 1500 1499 1498 1496 1495 1494 1494 1494 1493 1493 1493 1492 1492 1492 1492 1491 1491 1491 1491 1491 1490 1489 1488 1489 1490 1490 1490 1489 1490 1492 1493 1494 1497 1499 1501 1503 1505 1507 1509 1511 1512 1513 1514 1516 1516 1517 1519 1519 1518 1518 1516 1515 1514 1513 1513 1514 1514 1515 1516 1517 1518 1519 1521 1523 1524 1525 1526 1527 1528 1529 1530 1532 1534 1536 1538 1539 1541 1544 1546
1511 1510 1508 1507 1505 1504 1503 1501 1500 1499 1497 1496 1494 1493 1492 1492 1492 1492 1492 1491 1491 1491 1491 1491 1491 1491 1490 1490 1491 1490 1488 1488 1489 1490 1490 1491 1491 1492 1493 1494 1495 1497 1499 1502 1504 1505 1507 1508 1511 1512 1513 1514 1515 1516 1517 1518 1517 1516 1516 1515 1514 1513 1512 1512 1512 1513 1514 1516 1517 1518 1520 1521 1523 1524 1526 1526 1527 1528 1529 1531 1533 1534 1536 1538 1540 1542 1544 1546
1511 1509 1508 1506 1505 1503 1502 1500 1499 1498 1496 1495 1493 1492 1491 1490 1490 1490 1490 1490 1490 1490 1490 1490 1490 1490 1490 1490 1490 1489 1487 1488 1489 1490 1491 1492 1492 1493 1494 1495 1497 1498 1500 1502 1504 1506 1507 1509 1511 1513 1513 1514 1515 1516 1516 1516 1516 1515 1516 1515 1513 1511 1511 1510 1511 1512 1514 1516 1517 1518 1520 1522 1523 1524 1524 1525 1527 1529 1530 1531 1534 1535 1537 1539 1541 1543 1545 1546
1509 1508 1507 1505 1504 1502 1501 1499 1498 1497 1495 1493 1492 1490 1490 1489 1489 1488 1488 1488 1488 1488 1489 1489 1489 1489 1489 1489 1489 1488 1488 1488 1489 1490 1491 1492 1494 1494 1495 1497 1498 1500 1501 1502 1504 1506 1508 1510 1512 1513 1513 1513 1514 1516 1516 1516 1516 1515 1515 1515 1512 1509 1510 1510 1510 1512 1513 1516 1517 1518 1523 1525 1523 1524 1523 1524 1527 1528 1530 1532 1534 1536 1538 1540 1542 1544 1545 1547
1508 1506 1505 1504 1502 1501 1500 1498 1497 1496 1494 1492 1491 1490 1489 1488 1487 1487 1487 1487 1487 1487 1488 1488 1488 1489 1489 1488 1487 1487 1488 1488 1489 1490 1492 1493 1494 1495 1496 1498 1499 1501 1502 1504 1505 1506 1509 1510 1512 1513 1513 1513 1514 1515 1515 1514 1515 1514 1514 1515 1514 1512 1513 1511 1511 1513 1513 1516 1516 1518 1526 1525 1520 1522 1522 1524 1526 1528 1530 1532 1534 1537 1538 1540 1542 1544 1545 1547
1506 1505 1503 1502 1501 1500 1498 1497 1495 1494 1493 1492 1490 1489 1488 1487 1486 1486 1486 1486 1486 1487 1487 1487 1488 1488 1488 1487 1486 1486 1487 1488 1489 1490 1491 1493 1494 1495 1497 1498 1499 1501 1503 1504 1506 1507 1509 1510 1512 1513 1514 1513 1513 1514 1514 1514 1514 1514 1514 1515 1516 1517 1516 1512 1512 1513 1515 1518 1516 1519 1526 1523 1518 1520 1522 1524 1525 1527 1529 1531 1534 1536 1538 1540 1542 1544 1545 1546
1504 1503 1502 1500 1499 1498 1497 1496 1494 1493 1492 1491 1490 1488 1487 1486 1486 1485 1485 1485 1486 1486 1487 1487 1487 1488 1487 1486 1485 1486 1487 1488 1489 1490 1491 1492 1493 1495 1496 1498 1499 1501 1503 1505 1506 1508 1509 1511 1512 1513 1514 1513 1513 1514 1514 1514 1514 1514 1517 1518 1518 1518 1517 1514 1512 1513 1515 1518 1516 1520 1526 1521 1518 1519 1520 1523 1525 1526 1529 1531 1533 1535 1537 1539 1541 1543 1544 1546
1503 1501 1500 1498 1497 1496 1495 1494 1493 1492 1491 1490 1489 1488 1487 1486 1485 1485 1485 1485 1486 1486 1487 1487 1487 1488 1487 1485 1485 1486 1487 1488 1489 1490 1491 1492 1493 1495 1496 1497 1499 1501 1502 1505 1506 1508 1509 1511 1512 1513 1513 1513 1514 1515 1515 1517 1516 1515 1517 1518 1518 1518 1518 1516 1514 1512 1513 1516 1517 1519 1523 1521 1519 1519 1520 1523 1524 1526 1528 1530 1532 1534 1536 1538 1540 1542 1543 1545
1501 1500 1499 1497 1496 1495 1494 1493 1492 1491 1490 1490 1489 1487 1487 1486 1485 1486 1485 1485 1486 1486 1486 1486 1487 1487 1485 1484 1484 1485 1486 1488 1489 1489 1490 1492 1493 1494 1496 1497 1498 1501 1502 1505 1506 1507 1509 1511 1512 1513 1513 1513 1513 1514 1519 1523 1521 1518 1517 1517 1519 1519 1518 1518 1517 1513 1512 1516 1518 1519 1521 1520 1519 1519 1521 1523 1524 1526 1527 1529 1531 1533 1535 1537 1539 1541 1542 1544
1499 1498 1497 1496 1494 1493 1492 1491 1490 1490 1490 1489 1488 1487 1487 1486 1486 1486 1486 1486 1486 1486 1486 1486 1487 1487 1485 1483 1484 1485 1485 1487 1487 1488 1489 1491 1492 1494 1496 1496 1497 1500 1503 1505 1506 1507 1509 1511 1511 1512 1513 1514 1513 1514 1520 1522 1518 1517 1517 1517 1518 1519 1519 1518 1516 1514 1512 1515 1518 1520 1522 1519 1517 1518 1521 1523 1524 1525 1527 1528 1530 1532 1534 1536 1537 1539 1541 1542
1497 1496 1495 1494 1493 1492 1491 1490 1489 1489 1489 1488 1487 1487 1487 1486 1486 1486 1486 1486 1485 1485 1485 1485 1485 1485 1483 1482 1483 1484 1485 1485 1486 1487 1489 1490 1492 1494 1496 1496 1497 1499 1502 1504 1505 1507 1508 1510 1512 1513 1512 1511 1512 1512 1514 1514 1512 1513 1515 1515 1517 1517 1518 1517 1514 1511 1512 1516 1518 1519 1520 1517 1516 1518 1519 1522 1524 1526 1527 1528 1529 1531 1532 1535 1536 1537 1539 1541
1495 1494 1493 1493 1491 1491 1490 1489 1488 1488 1488 1487 1487 1487 1487 1487 1486 1486 1485 1484 1483 1483 1482 1483 1483 1482 1482 1482 1482 1483 1483 1484 1485 1486 1488 1489 1491 1493 1496 1497 1498 1500 1501 1501 1504 1506 1506 1509 1510 1508 1507 1507 1509 1511 1511 1511 1512 1513 1514 1516 1517 1517 1516 1514 1514 1511 1510 1516 1517 1515 1517 1516 1515 1516 1517 1521 1524 1525 1526 1526 1527 1528 1530 1532 1534 1535 1537 1539
1494 1493 1492 1491 1491 1490 1488 1488 1487 1487 1488 1487 1487 1487 1487 1487 1486 1486 1485 1483 1481 1481 1481 1481 1481 1481 1481 1481 1482 1482 1483 1483 1484 1486 1487 1489 1490 1493 1495 1497 1498 1500 1500 1501 1503 1505 1506 1507 1505 1503 1504 1506 1509 1510 1511 1513 1514 1514 1515 1516 1518 1518 1515 1513 1514 1512 1510 1515 1516 1514 1517 1517 1514 1514 1515 1518 1521 1521 1521 1523 1524 1526 1528 1530 1532 1534 1536 1538
1493 1492 1491 1490 1489 1488 1487 1487 1487 1487 1487 1487 1487 1487 1486 1487 1487 1487 1486 1483 1480 1480 1480 1480 1480 1479 1479 1480 1481 1481 1482 1482 1484 1485 1486 1489 1490 1492 1495 1496 1496 1497 1499 1501 1503 1506 1508 1506 1502 1502 1504 1506 1509 1510 1512 1514 1514 1514 1515 1517 1517 1516 1515 1514 1514 1512 1511 1515 1516 1515 1518 1515 1510 1511 1512 1514 1515 1516 1517 1519 1521 1524 1527 1529 1531 1533 1535 1538
1493 1491 1490 1489 1488 1487 1486 1486 1486 1486 1487 1487 1487 1487 1487 1486 1486 1486 1486 1484 1480 1478 1478 1478 1478 1479 1479 1480 1480 1480 1481 1481 1483 1484 1485 1488 1489 1491 1493 1495 1495 1496 1499 1500 1501 1506 1509 1504 1501 1502 1504 1506 1510 1511 1512 1514 1514 1514 1514 1516 1517 1515 1516 1516 1515 1514 1512 1513 1514 1515 1516 1513 1509 1510 1510 1510 1512 1514 1516 1518 1520 1522 1524 1526 1529 1531 1533 1535
1492 1490 1489 1487 1486 1486 1485 1485 1485 1485 1486 1487 1487 1487 1487 1486 1486 1486 1486 1485 1481 1478 1477 1477 1478 1478 1479 1479 1479 1480 1480 1480 1482 1483 1485 1486 1488 1491 1491 1492 1495 1496 1498 1499 1499 1502 1503 1500 1500 1503 1504 1506 1510 1512 1513 1513 1514 1514 1513 1514 1514 1515 1516 1515 1516 1515 1513 1513 1513 1515 1518 1513 1510 1512 1510 1509 1511 1513 1515 1517 1519 1520 1522 1525 1528 1530 1532 1533
1491 1489 1488 1486 1486 1484 1484 1484 1484 1485 1486 1486 1486 1487 1486 1486 1486 1486 1485 1485 1483 1478 1476 1477 1477 1477 1478 1479 1479 1479 1479 1480 1482 1483 1484 1486 1487 1489 1490 1492 1493 1495 1497 1499 1500 1501 1500 1499 1500 1503 1505 1506 1509 1511 1511 1511 1513 1514 1512 1511 1511 1513 1514 1515 1516 1516 1517 1518 1513 1516 1524 1519 1510 1512 1511 1508 1511 1512 1513 1514 1516 1518 1521 1524 1525 1527 1529 1532
1490 1489 1487 1486 1485 1484 1484 1484 1484 1485 1486 1486 1486 1486 1486 1486 1486 1486 1486 1486 1484 1479 1477 1478 1477 1477 1478 1478 1479 1479 1480 1482 1482 1483 1484 1486 1487 1488 1490 1491 1492 1494 1496 1497 1500 1500 1498 1499 1499 1501 1504 1506 1509 1510 1509 1510 1513 1515 1511 1508 1510 1511 1513 1515 1516 1517 1520 1521 1514 1514 1525 1523 1513 1510 1509 1508 1510 1511 1511 1512 1513 1515 1518 1520 1522 1524 1527 1529
1490 1489 1488 1487 1485 1484 1484 1484 1484 1485 1485 1486 1486 1485 1486 1485 1485 1485 1485 1489 1489 1481 1478 1479 1477 1477 1478 1478 1479 1479 1483 1484 1482 1483 1484 1485 1487 1487 1489 1491 1491 1493 1494 1496 1502 1500 1496 1499 1500 1501 1503 1506 1508 1509 1508 1508 1512 1514 1508 1506 1510 1510 1513 1515 1515 1518 1518 1518 1516 1512 1518 1524 1518 1512 1510 1510 1512 1513 1514 1514 1514 1515 1517 1518 1519 1521 1523 1526
1491 1490 1488 1487 1486 1485 1484 1484 1485 1485 1485 1486 1485 1486 1486 1484 1485 1485 1486 1496 1495 1482 1478 1479 1477 1478 1478 1479 1479 1479 1482 1482 1482 1485 1484 1485 1487 1486 1487 1489 1489 1491 1491 1495 1502 1498 1494 1498 1500 1500 1503 1505 1505 1505 1504 1506 1510 1509 1505 1506 1509 1508 1511 1511 1513 1518 1518 1520 1522 1515 1515 1524 1522 1514 1511 1512 1516 1518 1517 1516 1515 1515 1517 1518 1519 1519 1520 1523
1492 1490 1489 1488 1487 1486 1486 1486 1485 1485 1485 1485 1485 1486 1485 1484 1485 1483 1488 1498 1492 1480 1480 1479 1477 1479 1479 1479 1481 1480 1481 1481 1483 1486 1485 1485 1486 1485 1487 1489 1488 1490 1491 1492 1495 1494 1494 1496 1496 1497 1501 1501 1500 1500 1501 1504 1506 1504 1504 1507 1507 1509 1511 1511 1514 1517 1520 1527 1525 1515 1514 1521 1524 1521 1518 1518 1521 1522 1519 1515 1513 1512 1513 1516 1518 1519 1520 1522
1492 1491 1490 1489 1488 1487 1486 1486 1485 1485 1485 1484 1485 1484 1484 1485 1485 1487 1495 1498 1489 1482 1481 1479 1479 1480 1479 1480 1482 1483 1483 1484 1485 1485 1485 1486 1486 1486 1487 1489 1489 1490 1492 1491 1492 1493 1494 1494 1494 1496 1498 1498 1498 1499 1499 1501 1502 1502 1505 1507 1509 1512 1512 1513 1516 1515 1524 1533 1521 1510 1510 1514 1524 1528 1524 1524 1524 1522 1519 1516 1512 1510 1509 1511 1514 1517 1519 1521
1493 1491 1490 1489 1488 1487 1486 1486 1485 1484 1484 1484 1484 1483 1484 1484 1484 1493 1502 1496 1488 1485 1481 1481 1481 1480 1481 1482 1485 1486 1486 1487 1487 1487 1488 1489 1488 1488 1490 1492 1492 1492 1493 1494 1493 1493 1494 1494 1496 1497 1498 1497 1497 1499 1500 1500 1500 1502 1506 1508 1514 1518 1516 1519 1521 1521 1533 1534 1515 1509 1510 1511 1526 1533 1526 1524 1522 1519 1519 1517 1514 1511 1509 1508 1509 1511 1514 1518
1493 1492 1491 1489 1488 1487 1486 1485 1484 1484 1483 1482 1482 1482 1484 1486 1491 1500 1500 1491 1490 1489 1485 1485 1484 1483 1483 1484 1489 1491 1488 1490 1492 1491 1493 1494 1494 1497 1499 1502 1502 1500 1499 1499 1496 1494 1495 1496 1497 1498 1497 1497 1498 1498 1501 1503 1501 1503 1505 1509 1519 1526 1527 1531 1530 1528 1532 1525 1513 1513 1513 1517 1532 1535 1528 1525 1522 1519 1519 1516 1514 1512 1509 1507 1506 1506 1508 1511
1494 1493 1491 1490 1488 1487 1486 1484 1483 1483 1481 1480 1482 1481 1482 1491 1501 1503 1498 1493 1494 1492 1488 1488 1487 1485 1484 1485 1493 1494 1491 1495 1496 1494 1497 1497 1499 1503 1504 1505 1505 1503 1502 1500 1498 1497 1499 1499 1497 1498 1498 1498 1498 1497 1500 1503 1502 1503 1504 1509 1519 1527 1533 1539 1536 1533 1530 1519 1514 1515 1514 1523 1534 1533 1527 1525 1522 1520 1519 1516 1515 1512 1509 1506 1503 1503 1505 1506
1495 1493 1492 1490 1488 1487 1485 1483 1482 1481 1480 1480 1481 1480 1486 1500 1506 1502 1498 1496 1494 1491 1489 1491 1489 1486 1486 1490 1496 1495 1495 1500 1499 1497 1498 1498 1502 1506 1506 1505 1504 1504 1502 1501 1501 1502 1504 1506 1502 1501 1501 1499 1499 1498 1498 1498 1499 1500 1499 1502 1511 1514 1520 1529 1528 1526 1525 1518 1517 1518 1519 1525 1532 1532 1527 1523 1522 1521 1519 1517 1514 1511 1508 1504 1501 1501 1503 1505
1495 1494 1492 1490 1488 1487 1484 1484 1482 1481 1481 1480 1479 1484 1496 1508 1508 1503 1501 1497 1493 1492 1491 1491 1489 1489 1492 1495 1497 1495 1496 1500 1502 1501 1502 1504 1509 1512 1511 1509 1507 1507 1504 1503 1506 1506 1506 1508 1503 1501 1502 1501 1500 1500 1498 1497 1499 1501 1499 1501 1507 1503 1503 1514 1517 1513 1511 1514 1520 1522 1521 1522 1523 1525 1523 1521 1522 1520 1518 1517 1512 1510 1507 1503 1501 1501 1502 1504
1495 1494 1492 1490 1488 1486 1485 1484 1483 1482 1482 1479 1482 1494 1504 1508 1506 1504 1501 1497 1495 1496 1493 1491 1491 1493 1497 1498 1499 1498 1495 1499 1503 1504 1507 1511 1513 1514 1514 1513 1510 1509 1507 1506 1508 1508 1508 1507 1503 1501 1502 1501 1501 1500 1499 1499 1500 1501 1502 1504 1502 1497 1497 1508 1515 1513 1509 1515 1523 1523 1523 1525 1525 1524 1520 1520 1521 1518 1517 1516 1513 1512 1509 1505 1504 1503 1503 1503
1496 1494 1493 1490 1489 1487 1486 1485 1484 1483 1481 1478 1488 1502 1505 1504 1504 1503 1501 1497 1497 1497 1494 1495 1498 1501 1502 1502 1503 1502 1498 1499 1503 1505 1511 1514 1514 1516 1516 1514 1511 1511 1510 1508 1509 1509 1508 1507 1504 1503 1503 1501 1501 1500 1498 1499 1498 1498 1500 1500 1499 1499 1501 1504 1513 1519 1515 1517 1525 1527 1527 1529 1531 1529 1524 1520 1521 1520 1519 1518 1516 1515 1511 1508 1507 1505 1504 1503
1496 1495 1493 1491 1491 1489 1488 1486 1485 1484 1481 1483 1494 1503 1503 1503 1503 1502 1500 1498 1497 1496 1495 1498 1502 1504 1505 1505 1508 1507 1501 1502 1506 1508 1513 1516 1517 1519 1518 1516 1512 1510 1510 1508 1508 1509 1509 1507 1505 1504 1504 1502 1500 1498 1500 1500 1498 1498 1498 1497 1500 1504 1506 1507 1513 1518 1516 1519 1529 1534 1533 1533 1535 1534 1529 1527 1526 1525 1524 1521 1519 1517 1514 1512 1510 1507 1505 1503
1496 1495 1494 1494 1493 1492 1490 1488 1487 1484 1483 1492 1501 1504 1503 1503 1502 1501 1501 1498 1497 1497 1498 1500 1502 1503 1505 1507 1509 1509 1505 1506 1510 1512 1515 1518 1520 1519 1519 1518 1514 1511 1510 1509 1508 1510 1510 1508 1506 1503 1502 1503 1501 1503 1510 1509 1501 1498 1498 1498 1500 1502 1503 1505 1505 1506 1509 1518 1530 1534 1536 1539 1537 1534 1532 1532 1531 1529 1527 1525 1522 1521 1519 1517 1514 1510 1508 1505
1496 1495 1496 1496 1494 1494 1492 1490 1487 1486 1490 1499 1505 1504 1504 1504 1503 1502 1500 1498 1498 1498 1499 1502 1502 1503 1507 1508 1509 1510 1510 1511 1513 1515 1517 1521 1521 1519 1518 1519 1516 1513 1511 1509 1509 1511 1509 1508 1508 1505 1502 1505 1510 1515 1519 1517 1509 1504 1503 1505 1506 1505 1503 1503 1505 1506 1507 1514 1520 1526 1538 1544 1537 1532 1533 1533 1532 1531 1529 1527 1525 1524 1522 1519 1517 1514 1511 1508
1496 1496 1497 1496 1495 1495 1493 1491 1492 1494 1498 1503 1505 1505 1505 1505 1504 1503 1501 1500 1499 1499 1500 1502 1502 1505 1508 1509 1510 1511 1513 1515 1516 1517 1519 1522 1522 1522 1519 1518 1518 1515 1511 1510 1510 1511 1511 1509 1510 1511 1510 1514 1520 1521 1520 1519 1516 1512 1512 1514 1514 1512 1508 1505 1509 1513 1510 1512 1512 1515 1534 1545 1537 1533 1534 1533 1533 1532 1530 1529 1528 1527 1525 1522 1520 1517 1514 1512
1497 1498 1499 1497 1496 1496 1494 1495 1499 1500 1502 1505 1507 1508 1507 1506 1505 1504 1502 1501 1501 1501 1502 1503 1505 1507 1509 1510 1511 1512 1514 1518 1519 1519 1521 1523 1523 1523 1521 1519 1518 1515 1513 1513 1513 1513 1513 1512 1513 1518 1520 1520 1521 1521 1519 1519 1518 1515 1515 1517 1516 1515 1512 1507 1508 1512 1512 1516 1513 1510 1529 1545 1539 1534 1535 1534 1534 1534 1532 1532 1530 1529 1527 1524 1522 1519 1517 1515
1499 1501 1500 1497 1497 1496 1495 1500 1504 1504 1505 1508 1509 1509 1508 1508 1508 1506 1504 1503 1503 1503 1504 1506 1508 1509 1510 1511 1512 1514 1515 1519 1523 1522 1523 1525 1523 1523 1522 1519 1517 1516 1514 1515 1515 1514 1515 1518 1520 1523 1524 1521 1519 1520 1520 1519 1518 1517 1517 1518 1516 1517 1517 1512 1512 1511 1512 1518 1516 1513 1532 1546 1539 1535 1536 1535 1536 1535 1534 1533 1531 1530 1529 1527 1525 1522 1520 1518
1501 1502 1501 1498 1497 1496 1497 1503 1506 1506 1508 1509 1509 1510 1510 1510 1510 1509 1508 1507 1507 1507 1508 1511 1511 1510 1512 1512 1513 1515 1516 1519 1524 1525 1524 1525 1524 1523 1522 1520 1518 1517 1515 1516 1517 1514 1517 1523 1523 1523 1526 1526 1522 1520 1520 1518 1519 1521 1522 1520 1519 1518 1517 1516 1516 1512 1516 1526 1521 1516 1531 1543 1539 1536 1537 1536 1537 1536 1535 1535 1533 1532 1531 1529 1528 1526 1523 1521
1502 1503 1502 1500 1499 1498 1501 1505 1506 1507 1510 1510 1511 1512 1512 1512 1512 1512 1511 1511 1511 1511 1511 1514 1514 1513 1514 1513 1514 1517 1516 1517 1522 1525 1525 1525 1525 1524 1523 1521 1519 1518 1517 1518 1517 1515 1521 1528 1525 1521 1522 1524 1523 1524 1524 1525 1525 1525 1525 1523 1520 1520 1518 1517 1515 1513 1519 1530 1526 1520 1531 1541 1540 1538 1538 1538 1537 1537 1537 1537 1536 1535 1533 1532 1531 1529 1526 1524
1503 1504 1506 1505 1503 1503 1505 1508 1507 1508 1510 1511 1513 1515 1515 1515 1515 1514 1513 1513 1514 1513 1514 1515 1515 1515 1515 1515 1517 1519 1519 1518 1520 1524 1526 1526 1525 1525 1524 1522 1520 1520 1519 1519 1518 1518 1524 1531 1530 1525 1522 1523 1528 1532 1532 1531 1529 1528 1528 1525 1523 1522 1520 1516 1514 1516 1520 1524 1528 1532 1534 1538 1541 1541 1541 1542 1540 1539 1539 1538 1538 1537 1535 1534 1533 1532 1530 1527
1504 1508 1510 1509 1509 1508 1509 1510 1509 1510 1511 1512 1515 1518 1518 1517 1516 1516 1515 1515 1516 1516 1516 1517 1517 1517 1517 1518 1520 1523 1524 1522 1522 1525 1528 1528 1527 1526 1525 1523 1522 1521 1520 1520 1519 1520 1524 1530 1533 1532 1530 1531 1534 1535 1534 1532 1532 1531 1531 1529 1526 1525 1522 1517 1517 1522 1523 1522 1531 1540 1536 1535 1542 1544 1542 1544 1543 1541 1541 1540 1539 1539 1538 1537 1536 1534 1532 1530
1507 1511 1513 1512 1513 1514 1514 1514 1513 1512 1512 1513 1517 1519 1519 1519 1519 1519 1518 1517 1518 1518 1518 1520 1521 1520 1520 1521 1522 1525 1527 1526 1527 1529 1530 1529 1528 1527 1525 1525 1524 1523 1523 1522 1521 1522 1525 1531 1534 1533 1535 1535 1535 1534 1534 1533 1533 1533 1533 1531 1530 1528 1525 1524 1524 1527 1525 1523 1530 1538 1536 1537 1542 1542 1541 1544 1543 1543 1543 1542 1541 1541 1539 1538 1537 1535 1534 1532
1509 1511 1513 1512 1514 1517 1518 1517 1516 1515 1514 1515 1518 1520 1521 1521 1521 1522 1521 1519 1520 1521 1521 1523 1525 1524 1523 1522 1522 1526 1528 1528 1529 1531 1530 1530 1530 1529 1528 1528 1526 1525 1524 1524 1524 1525 1526 1532 1535 1534 1535 1537 1535 1535 1535 1535 1534 1534 1534 1533 1531 1529 1528 1528 1527 1527 1527 1528 1531 1535 1536 1539 1541 1541 1541 1542 1543 1543 1543 1543 1542 1541 1540 1539 1537 1536 1535 1534
1510 1512 1513 1513 1515 1517 1518 1518 1518 1517 1517 1517 1519 1522 1523 1523 1522 1523 1522 1522 1523 1523 1523 1525 1526 1525 1524 1524 1523 1526 1528 1527 1528 1530 1530 1530 1530 1530 1530 1530 1528 1527 1525 1525 1527 1526 1527 1533 1536 1535 1535 1537 1536 1535 1535 1535 1535 1534 1534 1533 1531 1530 1529 1529 1529 1529 1530 1533 1534 1535 1538 1542 1541 1540 1541 1542 1543 1543 1543 1543 1542 1541 1540 1539 1538 1538 1537 1536
1512 1513 1513 1514 1516 1518 1519 1519 1520 1519 1519 1520 1521 1522 1523 1523 1523 1523 1524 1524 1524 1524 1524 1525 1526 1526 1526 1526 1526 1527 1528 1528 1528 1528 1529 1529 1529 1529 1529 1530 1529 1528 1527 1528 1529 1527 1528 1534 1537 1535 1535 1537 1538 1537 1537 1536 1534 1533 1534 1535 1534 1533 1533 1533 1533 1533 1534 1535 1536 1537 1539 1542 1541 1541 1542 1542 1543 1542 1542 1543 1543 1543 1542 1541 1540 1539 1539 1538
1513 1514 1514 1514 1517 1520 1520 1521 1521 1521 1522 1523 1523 1523 1523 1523 1524 1523 1525 1526 1525 1525 1526 1526 1526 1526 1527 1528 1528 1529 1529 1529 1529 1529 1529 1529 1530 1529 1529 1529 1530 1529 1529 1530 1531 1532 1532 1533 1536 1535 1535 1536 1538 1539 1539 1536 1534 1534 1536 1538 1538 1537 1536 1536 1535 1536 1536 1536 1536 1536 1538 1541 1541 1541 1542 1542 1543 1543 1543 1543 1544 1544 1543 1542 1541 1541 1540 1540